Orbital Elements at Epoch 2459000.5 (2020-May-31.0) TDB
Reference: JPL 13 (heliocentric ecliptic J2000)
Element | Value | Uncertainty (1-sigma) | Units |
e | .1648953791900675 | 5.8592e-08 | |
a | 2.581132325925648 | 1.9862e-08 | au |
q | 2.155515532302398 | 1.4681e-07 | au |
i | 5.395529186305205 | 5.0919e-06 | deg |
node | 103.645167883133 | 6.7798e-05 | deg |
peri | 128.6294420209883 | 7.0583e-05 | deg |
M | 192.2590358586594 | 2.4714e-05 | deg |
tp | 2459706.249316010020 (2022-May-06.74931601) | 0.00010876 | TDB |
period | 1514.655379883979 4.15 | 1.7483e-05 4.787e-08 | d yr |
n | .2376778274326504 | 2.7435e-09 | deg/d |
Q | 3.006749119548899 | 2.3137e-08 | au |
|
| | Orbit Determination Parameters
Additional Information
|